Regional Weather Roundup
Issued by NWS

Home | Current Version | Previous Version | Text Only | Print | Product List | Glossary On
Versions: 1 2 3 4 5 6 7 8 9 10 11 12 13 14 15 16 17 18 19 20 21 22 23 24 25 26 27 28
000
ASCA42 TJSJ 221410
RWRPR
PUERTO RICO/U.S. VIRGIN ISLANDS HOURLY WEATHER ROUNDUP
NATIONAL WEATHER SERVICE SAN JUAN PR
1000 AM AST SUN JAN 22 2017

PRZ001>002-007>008-010-221500-
PUERTO RICO

CITY           SKY/WX    TMP DP  RH WIND       PRES   REMARKS
SAN JUAN LMM   MOSUNNY   79  66  65 N5        30.04R
AGUADILLA      MOSUNNY   75  64  69 E8        30.06R
CEIBA          SUNNY     79  66  65 N9        30.06R
$$

VIZ001>002-221500-
U.S. VIRGIN ISLANDS

CITY           SKY/WX    TMP DP  RH WIND       PRES   REMARKS
CHARLOTTE AMA  SUNNY     79  64  61 NW5       30.03R
CHRISTIANSTED  MOSUNNY   79  64  61 N7        30.04R
$$

HOURLY WEATHER ROUNDUP FOR THE NEWS MEDIA

CITY           SKY/WX    TMP DP  RH WIND       PRES   REMARKS
ORLANDO        CLOUDY    71  68  90 S13       29.73F
NEW YORK       CLOUDY    46  46 100 N9        29.73F FOG
NEWARK         FOG       45  44  97 N7        29.73R VSB 1/4
CHICAGO        CLOUDY    41  38  89 NE5       29.62R
HARTFORD       CLOUDY    42  39  89 CALM      29.78S
BOSTON         CLOUDY    43  42  97 CALM      29.81R
DALLAS         PTCLDY    52  38  58 NW16G22   29.48R
PHILADELPHIA   CLOUDY    46  45  96 NE8       29.72  FOG
LOS ANGELES    RAIN      51  48  89 E12       30.08R
WASHINGTON DC  FOG       46  45  96 N7        29.71R VSB 1/8



USA.gov is the U.S. government's official web portal to all federal, state and local government web resources and services.